Hourly Weather Alipino

Today, 4 March, Thursday

Time Temperature Precipitation Wind Pressure Humidity
00:00 0°C° 0 mm 5 mps 745 mmHg 86%
01:00 0°C° 0 mm 5 mps 745 mmHg 87%
02:00 0°C° 0 mm 5 mps 745 mmHg 91%
03:00 -1°C° 0.2 mm 4 mps 744 mmHg 93%
04:00 -1°C° 0.2 mm 4 mps 743 mmHg 95%
05:00 -1°C° 0.2 mm 4 mps 743 mmHg 97%
06:00 -1°C° 0.5 mm 3 mps 743 mmHg 94%
07:00 -1°C° 0.5 mm 2 mps 742 mmHg 91%
08:00 -2°C° 0 mm 2 mps 743 mmHg 89%
09:00 -1°C° 0.1 mm 2 mps 743 mmHg 82%
10:00 -1°C° 0.1 mm 3 mps 743 mmHg 74%
11:00 0°C° 0.1 mm 3 mps 743 mmHg 67%
12:00 0°C° 0.1 mm 3 mps 743 mmHg 67%
13:00 -1°C° 0.1 mm 4 mps 743 mmHg 66%
14:00 -1°C° 0 mm 4 mps 743 mmHg 66%
15:00 -2°C° 0.1 mm 4 mps 743 mmHg 68%
16:00 -3°C° 0.1 mm 4 mps 743 mmHg 71%
17:00 -4°C° 0.1 mm 4 mps 743 mmHg 74%
18:00 -4°C° 0 mm 4 mps 744 mmHg 75%
19:00 -5°C° 0 mm 4 mps 744 mmHg 76%
20:00 -6°C° 0 mm 3 mps 745 mmHg 78%
21:00 -6°C° 0 mm 3 mps 745 mmHg 78%
22:00 -5°C° 0 mm 2 mps 745 mmHg 79%
23:00 -5°C° 0 mm 2 mps 745 mmHg 80%

Tomorrow, 5 March, Friday

Time Temperature Precipitation Wind Pressure Humidity
00:00 -5°C° 0 mm 2 mps 745 mmHg 79%
01:00 -5°C° 0 mm 2 mps 745 mmHg 79%
02:00 -5°C° 0 mm 2 mps 746 mmHg 78%
03:00 -5°C° 0.2 mm 2 mps 746 mmHg 81%
04:00 -4°C° 0.2 mm 2 mps 746 mmHg 84%
05:00 -5°C° 0.2 mm 3 mps 746 mmHg 87%
06:00 -5°C° 0.4 mm 3 mps 746 mmHg 88%
07:00 -5°C° 0.4 mm 4 mps 746 mmHg 89%
08:00 -5°C° 0.4 mm 4 mps 746 mmHg 89%
09:00 -5°C° 0.5 mm 4 mps 747 mmHg 84%
10:00 -7°C° 0.5 mm 5 mps 747 mmHg 79%
11:00 -7°C° 0.5 mm 5 mps 748 mmHg 74%
12:00 -6°C° 0.1 mm 5 mps 748 mmHg 70%
13:00 -5°C° 0.1 mm 4 mps 749 mmHg 66%
14:00 -5°C° 0.1 mm 4 mps 749 mmHg 61%
15:00 -5°C° 0.1 mm 4 mps 749 mmHg 62%
16:00 -5°C° 0.1 mm 4 mps 750 mmHg 63%
17:00 -6°C° 0.1 mm 3 mps 750 mmHg 64%
18:00 -6°C° 0 mm 3 mps 751 mmHg 68%
19:00 -6°C° 0 mm 2 mps 751 mmHg 72%
20:00 -7°C° 0 mm 2 mps 752 mmHg 77%
21:00 -7°C° 0 mm 2 mps 752 mmHg 80%
22:00 -7°C° 0 mm 2 mps 753 mmHg 83%
23:00 -8°C° 0 mm 2 mps 753 mmHg 86%

Day after tomorrow, 6 March, Saturday

Time Temperature Precipitation Wind Pressure Humidity
00:00 -8°C° 0 mm 2 mps 753 mmHg 87%
01:00 -8°C° 0 mm 2 mps 754 mmHg 88%
02:00 -8°C° 0 mm 2 mps 754 mmHg 89%
03:00 -8°C° 0 mm 2 mps 754 mmHg 90%
04:00 -8°C° 0 mm 2 mps 754 mmHg 91%
05:00 -8°C° 0 mm 2 mps 754 mmHg 91%
06:00 -8°C° 0 mm 2 mps 754 mmHg 90%
07:00 -8°C° 0 mm 2 mps 754 mmHg 88%
08:00 -8°C° 0 mm 2 mps 754 mmHg 87%
09:00 -8°C° 0 mm 3 mps 754 mmHg 78%
10:00 -6°C° 0 mm 3 mps 754 mmHg 70%
11:00 -5°C° 0 mm 3 mps 754 mmHg 62%
12:00 -4°C° 0 mm 4 mps 753 mmHg 57%
13:00 -4°C° 0 mm 4 mps 753 mmHg 52%
14:00 -4°C° 0 mm 5 mps 752 mmHg 47%
15:00 -4°C° 0 mm 5 mps 751 mmHg 51%
16:00 -4°C° 0 mm 5 mps 750 mmHg 55%
17:00 -5°C° 0 mm 5 mps 749 mmHg 59%
18:00 -4°C° 0 mm 6 mps 748 mmHg 59%
19:00 -4°C° 0 mm 6 mps 747 mmHg 60%
20:00 -4°C° 0 mm 6 mps 746 mmHg 61%
21:00 -4°C° 0 mm 7 mps 745 mmHg 61%
22:00 -4°C° 0 mm 7 mps 744 mmHg 61%
23:00 -4°C° 0 mm 7 mps 742 mmHg 61%

7 March, Sunday

Time Temperature Precipitation Wind Pressure Humidity
00:00 -4°C° 0.3 mm 7 mps 741 mmHg 71%
01:00 -4°C° 0.3 mm 7 mps 740 mmHg 82%
02:00 -6°C° 0.3 mm 7 mps 739 mmHg 92%
03:00 -6°C° 1 mm 7 mps 739 mmHg 90%
04:00 -7°C° 1 mm 7 mps 738 mmHg 87%
05:00 -6°C° 1 mm 6 mps 738 mmHg 84%
06:00 -8°C° 0.1 mm 6 mps 739 mmHg 74%
07:00 -8°C° 0.1 mm 5 mps 739 mmHg 64%
08:00 -10°C° 0.1 mm 5 mps 740 mmHg 53%
09:00 -8°C° 0 mm 5 mps 740 mmHg 51%
10:00 -8°C° 0 mm 6 mps 740 mmHg 48%
11:00 -7°C° 0 mm 7 mps 740 mmHg 46%
12:00 -6°C° 0.1 mm 7 mps 739 mmHg 47%
13:00 -6°C° 0.1 mm 7 mps 739 mmHg 48%
14:00 -4°C° 0.1 mm 7 mps 738 mmHg 49%
15:00 -4°C° 0.1 mm 7 mps 738 mmHg 51%
16:00 -5°C° 0.1 mm 6 mps 737 mmHg 54%
17:00 -5°C° 0.1 mm 5 mps 736 mmHg 56%
18:00 -6°C° 0.1 mm 6 mps 736 mmHg 63%
19:00 -8°C° 0.1 mm 6 mps 736 mmHg 71%
20:00 -8°C° 0.1 mm 6 mps 736 mmHg 78%
21:00 -9°C° 0.2 mm 6 mps 737 mmHg 74%
22:00 -11°C° 0.2 mm 7 mps 738 mmHg 70%
23:00 -12°C° 0.2 mm 7 mps 738 mmHg 67%

8 March, Monday

Time Temperature Precipitation Wind Pressure Humidity
00:00 -13°C° 0 mm 7 mps 739 mmHg 70%
01:00 -12°C° 0 mm 6 mps 741 mmHg 73%
02:00 -13°C° 0 mm 5 mps 742 mmHg 76%
03:00 -13°C° 0 mm 5 mps 742 mmHg 77%
04:00 -12°C° 0 mm 4 mps 743 mmHg 78%
05:00 -13°C° 0 mm 3 mps 744 mmHg 79%
06:00 -13°C° 0 mm 3 mps 745 mmHg 81%
07:00 -12°C° 0 mm 4 mps 745 mmHg 82%
08:00 -12°C° 0 mm 4 mps 746 mmHg 84%
09:00 -12°C° 0.1 mm 4 mps 746 mmHg 80%
10:00 -11°C° 0.1 mm 4 mps 747 mmHg 76%
11:00 -11°C° 0.1 mm 4 mps 747 mmHg 72%
12:00 -11°C° 0 mm 4 mps 747 mmHg 71%
13:00 -10°C° 0 mm 4 mps 748 mmHg 69%
14:00 -10°C° 0 mm 4 mps 749 mmHg 68%
15:00 -11°C° 0 mm 4 mps 749 mmHg 71%
16:00 -11°C° 0 mm 4 mps 749 mmHg 73%
17:00 -12°C° 0 mm 4 mps 750 mmHg 76%
18:00 -12°C° 0 mm 4 mps 751 mmHg 78%
19:00 -14°C° 0 mm 4 mps 751 mmHg 80%
20:00 -14°C° 0 mm 4 mps 752 mmHg 82%
21:00 -14°C° 0 mm 3 mps 753 mmHg 84%
22:00 -13°C° 0 mm 2 mps 753 mmHg 85%
23:00 -14°C° 0 mm 2 mps 754 mmHg 87%

9 March, Tuesday

Time Temperature Precipitation Wind Pressure Humidity
00:00 -14°C° 0 mm 2 mps 754 mmHg 88%
01:00 -14°C° 0 mm 2 mps 755 mmHg 89%
02:00 -14°C° 0 mm 2 mps 755 mmHg 90%
03:00 -15°C° 0 mm 2 mps 755 mmHg 90%
04:00 -15°C° 0 mm 2 mps 756 mmHg 90%
05:00 -15°C° 0 mm 2 mps 756 mmHg 91%
06:00 -12°C° 0 mm 1 mps 756 mmHg 87%
07:00 -12°C° 0 mm 1 mps 757 mmHg 84%
08:00 -12°C° 0 mm 1 mps 757 mmHg 81%
09:00 -12°C° 0 mm 2 mps 757 mmHg 76%
10:00 -9°C° 0 mm 2 mps 757 mmHg 71%
11:00 -7°C° 0 mm 2 mps 757 mmHg 66%
12:00 -6°C° 0 mm 2 mps 757 mmHg 64%
13:00 -6°C° 0 mm 3 mps 757 mmHg 61%
14:00 -5°C° 0 mm 3 mps 757 mmHg 58%
15:00 -5°C° 0 mm 3 mps 757 mmHg 59%
16:00 -5°C° 0 mm 3 mps 757 mmHg 60%
17:00 -5°C° 0 mm 2 mps 756 mmHg 61%
18:00 -6°C° 0 mm 3 mps 757 mmHg 63%
19:00 -6°C° 0 mm 3 mps 757 mmHg 65%
20:00 -7°C° 0 mm 3 mps 757 mmHg 67%
21:00 -7°C° 0 mm 3 mps 757 mmHg 67%
22:00 -7°C° 0 mm 3 mps 757 mmHg 67%
23:00 -7°C° 0 mm 3 mps 757 mmHg 67%
Show more